Home > Weather > Hannover > Past weeks

Flag for Germany Past Weather in Hannover, Lower Saxony, Germany — Yesterday and Last 2 Weeks

Now
70 °F

Broken clouds.


Feels Like: 70 °F
Forecast: 53 / 66 °F
Wind: 8 mph from Southwest

Location: Hannover

Current Time: Jul 1, 2016 at 3:41:53 PM

Latest Report: Jul 1, 2016 at 3:20 PM


Visibility: N/A

Pressure: 29.92 "Hg

Humidity: 73%

Dew Point: 61 °F

Location of HannoverLocation

Past Weather in Hannover — Graph

°F

Hannover Temperature Yesterday

Maximum temperature yesterday: 72 °F (at 2:20 PM)
Minimum temperature yesterday: 61 °F (at 2:20 AM)
Average temperature yesterday: 65 °F

High & Low Weather Summary for the Past Weeks

 TemperatureHumidityPressure
High90 °F (Jun 23, 3:20 PM)100% (Jun 18, 3:50 AM)30.24 "Hg (Jun 18, 3:50 AM)
Low50 °F (Jun 19, 11:50 PM)36% (Jun 23, 6:50 PM)29.56 "Hg (Jun 17, 2:50 AM)
Average64 °F77%29.98 "Hg
* Reported Jun 16 2:20 PM — Jul 1 2:20 PM, Hannover, Weather by CustomWeather, © 2016

Note: Actual official high and low records may vary slightly from our data, if they occured in-between our weather recording intervals... More about our weather records

Advertising

Hannover Weather History for the Previous 24 Hours

Scroll right to see more
 ConditionsComfort  
Time TempWeatherWind HumidityBarometerVisibility
2:20 PM
Fri, Jul 1
70 °FPartly sunny.13 mph69%29.92 "HgN/A
1:50 PM70 °FPartly sunny.14 mph73%29.92 "HgN/A
1:20 PM68 °FRain showers. Partly sunny.16 mph73%29.92 "HgN/A
12:50 PM73 °FBroken clouds.14 mph65%29.92 "HgN/A
12:20 PM72 °FBroken clouds.13 mph69%29.92 "HgN/A
11:50 AM70 °FBroken clouds.12 mph73%29.92 "HgN/A
11:20 AM72 °FPartly sunny.12 mph69%29.92 "HgN/A
10:50 AM72 °FPartly sunny.15 mph69%29.92 "HgN/A
10:20 AM68 °FPartly sunny.15 mph73%29.92 "HgN/A
9:50 AM68 °FPartly sunny.14 mph73%29.89 "HgN/A
9:20 AM66 °FPartly sunny.14 mph78%29.92 "HgN/A
8:50 AM66 °FPartly sunny.9 mph78%29.92 "HgN/A
8:20 AM66 °FSunny.12 mph78%29.89 "Hg10 mi
7:50 AM66 °FSunny.10 mph78%29.89 "Hg10 mi
7:20 AM66 °FSunny.10 mph78%29.89 "Hg10 mi
6:50 AM64 °FSunny.9 mph83%29.89 "Hg10 mi
6:20 AM64 °FSunny.7 mph83%29.89 "Hg10 mi
5:50 AM63 °FPassing clouds.6 mph83%29.89 "HgN/A
5:20 AM63 °FPassing clouds.6 mph88%29.89 "HgN/A
4:50 AM63 °FPassing clouds.7 mph83%29.89 "HgN/A
4:20 AM63 °FPassing clouds.6 mph88%29.89 "HgN/A
3:50 AM63 °FPassing clouds.6 mph88%29.89 "HgN/A
3:20 AM63 °FPassing clouds.6 mph88%29.89 "HgN/A
2:50 AM63 °FPassing clouds.6 mph88%29.89 "HgN/A
2:20 AM63 °FClear.7 mph88%29.89 "Hg10 mi
1:50 AM63 °FClear.7 mph88%29.89 "Hg10 mi
1:20 AM63 °FPassing clouds.6 mph88%29.89 "HgN/A
12:50 AM64 °FPassing clouds.6 mph83%29.89 "HgN/A
12:20 AM64 °FSprinkles. Passing clouds.8 mph83%29.89 "HgN/A
11:50 PM
Thu, Jun 30
66 °FSprinkles. Partly cloudy.6 mph73%29.92 "HgN/A
11:20 PM66 °FPartly cloudy.8 mph73%29.92 "HgN/A
10:50 PM66 °FPassing clouds.7 mph73%29.92 "HgN/A
10:20 PM64 °FScattered clouds.6 mph78%29.92 "HgN/A
9:50 PM66 °FBroken clouds.6 mph73%29.92 "HgN/A
9:20 PM66 °FBroken clouds.6 mph73%29.89 "HgN/A
8:50 PM66 °FPartly sunny.8 mph73%29.89 "HgN/A
8:20 PM68 °FBroken clouds.9 mph69%29.89 "HgN/A
7:50 PM68 °FBroken clouds.7 mph69%29.89 "HgN/A
7:20 PM68 °FBroken clouds.7 mph69%29.89 "HgN/A
6:50 PM68 °FPartly sunny.9 mph73%29.92 "HgN/A
6:20 PM68 °FPartly sunny.7 mph69%29.92 "HgN/A
5:50 PM66 °FPartly sunny.8 mph73%29.92 "HgN/A
5:20 PM66 °FPartly sunny.10 mph73%29.92 "HgN/A
4:50 PM68 °FPartly sunny.12 mph69%29.92 "HgN/A
4:20 PM68 °FPartly sunny.9 mph73%29.92 "HgN/A
3:50 PM68 °FPartly sunny.10 mph69%29.89 "HgN/A
3:20 PM68 °FPartly sunny.9 mph64%29.89 "HgN/A
Weather by CustomWeather, © 2016

See weather overviewHow to use our weather pages